APG502 WBKK-RPLL

Flight info

Callsign APG502
Flight time 1h 49m
Altitude 38000
Route VETAG1H VETAG DCT OSANU M646 TOKON DCT LUBAN LUBAN7R
Aircraft A20N/M-SDE2E3FGHIRWXY/LB1

Departure

Time 2026-05-06 12:44
Airport Kota Kinabalu International Airport (WBKK)

Arrival

Time 2026-05-06 14:33
Airport Ninoy Aquino International Airport (RPLL)
Time Latitude Longitude Altitude Speed Heading
2026-05-06 12:11 5.92535 116.05003 28 ft 0 kts 113°
2026-05-06 12:27 5.92537 116.04998 28 ft 1 kts 113°
2026-05-06 12:27 5.92540 116.04992 28 ft 1 kts 113°
2026-05-06 12:27 5.92542 116.04987 28 ft 1 kts 113°
2026-05-06 12:28 5.92547 116.04974 28 ft 2 kts 100°
2026-05-06 12:28 5.92548 116.04961 28 ft 2 kts 80°
2026-05-06 12:28 5.92543 116.04945 28 ft 2 kts 57°
2026-05-06 12:28 5.92532 116.04932 28 ft 2 kts 38°
2026-05-06 12:29 5.92518 116.04922 28 ft 2 kts 27°
2026-05-06 12:29 5.92514 116.04921 28 ft 0 kts 27°
2026-05-06 12:34 5.92527 116.04927 28 ft 8 kts 27°
2026-05-06 12:35 5.92591 116.04960 28 ft 12 kts 27°
2026-05-06 12:35 5.92643 116.04939 28 ft 9 kts 288°
2026-05-06 12:35 5.92679 116.04882 28 ft 11 kts 314°
2026-05-06 12:35 5.92717 116.04889 28 ft 4 kts 336°
2026-05-06 12:36 5.92748 116.04896 28 ft 6 kts 17°
2026-05-06 12:36 5.92799 116.04914 28 ft 10 kts 22°
2026-05-06 12:36 5.92885 116.04951 28 ft 17 kts 24°
2026-05-06 12:36 5.93016 116.05009 28 ft 24 kts 24°
2026-05-06 12:37 5.93191 116.05075 28 ft 30 kts 19°
2026-05-06 12:37 5.93393 116.05158 28 ft 34 kts 25°
2026-05-06 12:37 5.93592 116.05259 28 ft 37 kts
2026-05-06 12:37 5.93727 116.05339 28 ft 0 kts 65°
2026-05-06 12:38 5.93728 116.05342 28 ft 3 kts 64°
2026-05-06 12:38 5.93745 116.05355 28 ft 1 kts 11°
2026-05-06 12:38 5.93770 116.05358 28 ft 8 kts
2026-05-06 12:38 5.93881 116.05369 28 ft 23 kts 17°
2026-05-06 12:39 5.94056 116.05446 28 ft 31 kts 24°
2026-05-06 12:39 5.94257 116.05536 28 ft 32 kts 21°
2026-05-06 12:39 5.94467 116.05615 28 ft 32 kts 21°
2026-05-06 12:39 5.94670 116.05702 28 ft 32 kts 22°
2026-05-06 12:40 5.94855 116.05779 28 ft 19 kts 20°
2026-05-06 12:40 5.94916 116.05730 28 ft 2 kts 261°
2026-05-06 12:40 5.94916 116.05729 28 ft 0 kts 261°
2026-05-06 12:42 5.94915 116.05726 28 ft 7 kts 263°
2026-05-06 12:42 5.94933 116.05658 28 ft 7 kts 283°
2026-05-06 12:42 5.94924 116.05630 28 ft 6 kts 233°
2026-05-06 12:42 5.94872 116.05602 28 ft 12 kts 205°
2026-05-06 12:43 5.94626 116.05489 28 ft 73 kts 206°
2026-05-06 12:43 5.93982 116.05237 28 ft 123 kts 201°
2026-05-06 12:43 5.93064 116.04848 30 ft 162 kts 203°
2026-05-06 12:43 5.91987 116.04361 331 ft 169 kts 205°
2026-05-06 12:44 5.90899 116.03846 732 ft 178 kts 206°
2026-05-06 12:44 5.89786 116.03312 1236 ft 175 kts 204°
2026-05-06 12:44 5.88693 116.02811 1753 ft 170 kts 203°
2026-05-06 12:44 5.87629 116.02345 2273 ft 166 kts 203°
2026-05-06 12:45 5.86516 116.01874 2484 ft 183 kts 194°
2026-05-06 12:45 5.85205 116.01887 2675 ft 198 kts 169°
2026-05-06 12:45 5.82520 116.03083 3050 ft 228 kts 121°
2026-05-06 12:46 5.82029 116.04431 4019 ft 210 kts 102°
2026-05-06 12:46 5.81664 116.06013 3912 ft 243 kts 102°
2026-05-06 12:46 5.81230 116.07676 4498 ft 247 kts 105°
2026-05-06 12:46 5.80413 116.09181 5160 ft 251 kts 132°
2026-05-06 12:47 5.79301 116.10559 5748 ft 258 kts 115°
2026-05-06 12:47 5.78896 116.12286 6338 ft 262 kts 87°
2026-05-06 12:47 5.79371 116.14049 6902 ft 267 kts 59°
2026-05-06 12:47 5.80641 116.15412 7465 ft 273 kts 32°
2026-05-06 12:48 5.82423 116.16103 8049 ft 278 kts 14°
2026-05-06 12:48 5.84332 116.16534 8636 ft 284 kts 15°
2026-05-06 12:48 5.86233 116.17111 9234 ft 287 kts 21°
2026-05-06 12:48 5.88091 116.17882 9825 ft 291 kts 26°
2026-05-06 12:49 5.89912 116.18785 10384 ft 294 kts 28°
2026-05-06 12:49 5.91723 116.19759 10937 ft 297 kts 29°
2026-05-06 12:49 5.93544 116.20767 11510 ft 300 kts 30°
2026-05-06 12:49 5.95378 116.21788 12089 ft 303 kts 30°
2026-05-06 12:50 5.97225 116.22814 12681 ft 305 kts 30°
2026-05-06 12:50 5.99091 116.23846 13284 ft 307 kts 30°
2026-05-06 12:50 6.00334 116.24533 13682 ft 308 kts 30°
2026-05-06 12:50 6.02822 116.25905 14404 ft 308 kts 30°
2026-05-06 12:51 6.04724 116.26953 14956 ft 308 kts 30°
2026-05-06 12:51 6.06581 116.27976 15510 ft 308 kts 30°
2026-05-06 12:51 6.08453 116.29008 16076 ft 307 kts 30°
2026-05-06 12:51 6.10317 116.30036 16660 ft 304 kts 30°
2026-05-06 12:52 6.12164 116.31054 17248 ft 301 kts 30°
2026-05-06 12:52 6.14014 116.32074 17656 ft 307 kts 30°
2026-05-06 12:52 6.15916 116.33124 17827 ft 319 kts 30°
2026-05-06 12:52 6.17253 116.33862 17866 ft 330 kts 30°
2026-05-06 12:53 6.19315 116.34999 17872 ft 347 kts 30°
2026-05-06 12:53 6.21477 116.36191 17875 ft 363 kts 30°
2026-05-06 12:53 6.23738 116.37438 17947 ft 377 kts 30°
2026-05-06 12:53 6.26839 116.39111 18271 ft 386 kts 26°
2026-05-06 12:54 6.28512 116.39824 18556 ft 387 kts 21°
2026-05-06 12:54 6.31035 116.40787 18931 ft 389 kts 22°
2026-05-06 12:54 6.33577 116.41767 19291 ft 392 kts 22°
2026-05-06 12:54 6.35749 116.42608 19609 ft 394 kts 22°
2026-05-06 12:55 6.38307 116.43600 19973 ft 396 kts 22°
2026-05-06 12:55 6.40888 116.44601 20326 ft 398 kts 22°
2026-05-06 12:55 6.43481 116.45606 20693 ft 400 kts 22°
2026-05-06 12:55 6.46090 116.46617 21049 ft 403 kts 22°
2026-05-06 12:56 6.48711 116.47632 21404 ft 405 kts 22°
2026-05-06 12:56 6.51351 116.48655 21746 ft 408 kts 22°
2026-05-06 12:56 6.54007 116.49684 22092 ft 410 kts 22°
2026-05-06 12:56 6.56667 116.50729 22421 ft 412 kts 24°
2026-05-06 12:57 6.59234 116.52022 22735 ft 414 kts 31°
2026-05-06 12:57 6.61610 116.53597 23055 ft 415 kts 36°
2026-05-06 12:57 6.63976 116.55277 23382 ft 417 kts 36°
2026-05-06 12:57 6.66391 116.56978 23655 ft 419 kts 36°
2026-05-06 12:58 6.68756 116.58640 23922 ft 421 kts 36°
2026-05-06 12:58 6.71166 116.60333 24175 ft 423 kts 36°
2026-05-06 12:58 6.73582 116.62031 24437 ft 425 kts 36°
2026-05-06 12:58 6.76007 116.63736 24684 ft 427 kts 36°
2026-05-06 12:59 6.78444 116.65451 24939 ft 428 kts 36°
2026-05-06 12:59 6.80889 116.67171 25193 ft 430 kts 36°
2026-05-06 12:59 6.83344 116.68899 25432 ft 432 kts 36°
2026-05-06 12:59 6.85813 116.70637 25660 ft 434 kts 36°
2026-05-06 13:00 6.88291 116.72381 25898 ft 435 kts 36°
2026-05-06 13:00 6.90774 116.74129 26131 ft 437 kts 36°
2026-05-06 13:00 6.93266 116.75884 26347 ft 439 kts 36°
2026-05-06 13:00 6.95773 116.77650 26579 ft 440 kts 36°
2026-05-06 13:01 6.98284 116.79419 26813 ft 442 kts 36°
2026-05-06 13:01 7.00804 116.81194 27026 ft 443 kts 36°
2026-05-06 13:01 7.03335 116.82977 27240 ft 445 kts 36°
2026-05-06 13:01 7.05876 116.84767 27457 ft 446 kts 36°
2026-05-06 13:02 7.08420 116.86560 27673 ft 448 kts 36°
2026-05-06 13:02 7.10977 116.88362 27864 ft 449 kts 36°
2026-05-06 13:02 7.13540 116.90169 28061 ft 451 kts 36°
2026-05-06 13:02 7.16114 116.91984 28264 ft 452 kts 36°
2026-05-06 13:03 7.18690 116.93801 28450 ft 454 kts 36°
2026-05-06 13:03 7.21281 116.95628 28646 ft 455 kts 36°
2026-05-06 13:03 7.23878 116.97460 28821 ft 457 kts 36°
2026-05-06 13:03 7.26490 116.99302 28992 ft 459 kts 36°
2026-05-06 13:04 7.29104 117.01147 29149 ft 460 kts 36°
2026-05-06 13:04 7.31731 117.03000 29321 ft 462 kts 36°
2026-05-06 13:04 7.34366 117.04860 29469 ft 464 kts 36°
2026-05-06 13:04 7.36979 117.06704 29647 ft 465 kts 36°
2026-05-06 13:05 7.39667 117.08602 29797 ft 467 kts 36°
2026-05-06 13:05 7.44964 117.12343 29887 ft 469 kts 36°
2026-05-06 13:06 7.50298 117.16110 29891 ft 469 kts 36°
2026-05-06 13:06 7.55643 117.19886 29888 ft 469 kts 36°
2026-05-06 13:07 7.60989 117.23664 30158 ft 470 kts 35°
2026-05-06 13:07 7.63669 117.25559 30333 ft 471 kts 35°
2026-05-06 13:07 7.66352 117.27456 30491 ft 472 kts 35°
2026-05-06 13:07 7.68789 117.29179 30644 ft 473 kts 35°
2026-05-06 13:08 7.71483 117.31092 30815 ft 473 kts 36°
2026-05-06 13:08 7.73921 117.32835 30995 ft 473 kts 36°
2026-05-06 13:08 7.76606 117.34759 31224 ft 473 kts 36°
2026-05-06 13:08 7.79283 117.36676 31463 ft 472 kts 36°
2026-05-06 13:09 7.81953 117.38588 31706 ft 470 kts 36°
2026-05-06 13:09 7.84620 117.40496 31940 ft 469 kts 36°
2026-05-06 13:09 7.87282 117.42400 32159 ft 468 kts 36°
2026-05-06 13:09 7.89937 117.44300 32371 ft 468 kts 36°
2026-05-06 13:10 7.92584 117.46194 32566 ft 467 kts 36°
2026-05-06 13:10 7.95236 117.48092 32766 ft 466 kts 36°
2026-05-06 13:10 7.97880 117.49985 32888 ft 466 kts 36°
2026-05-06 13:11 8.03163 117.53767 32890 ft 465 kts 36°
2026-05-06 13:11 8.08440 117.57547 32892 ft 466 kts 36°
2026-05-06 13:12 8.13725 117.61334 32893 ft 466 kts 36°
2026-05-06 13:12 8.19004 117.65117 32893 ft 466 kts 36°
2026-05-06 13:13 8.24254 117.68882 32892 ft 466 kts 36°
2026-05-06 13:13 8.29539 117.72672 32890 ft 466 kts 36°
2026-05-06 13:14 8.34861 117.76490 32894 ft 466 kts 36°
2026-05-06 13:14 8.40111 117.80258 32889 ft 466 kts 36°
2026-05-06 13:15 8.45435 117.84080 32894 ft 466 kts 36°
2026-05-06 13:15 8.50690 117.87854 32898 ft 467 kts 36°
2026-05-06 13:16 8.55980 117.91655 32897 ft 467 kts 36°
2026-05-06 13:16 8.61267 117.95454 32897 ft 467 kts 36°
2026-05-06 13:17 8.66551 117.99253 32899 ft 467 kts 36°
2026-05-06 13:17 8.71855 118.03068 32901 ft 467 kts 36°
2026-05-06 13:18 8.77142 118.06871 32901 ft 467 kts 36°
2026-05-06 13:18 8.82434 118.10679 32902 ft 467 kts 36°
2026-05-06 13:19 8.87723 118.14487 32902 ft 467 kts 36°
2026-05-06 13:19 8.93014 118.18298 32900 ft 467 kts 36°
2026-05-06 13:20 8.98306 118.22111 32899 ft 467 kts 36°
2026-05-06 13:20 9.03598 118.25925 32904 ft 467 kts 36°
2026-05-06 13:21 9.08895 118.29744 32902 ft 467 kts 36°
2026-05-06 13:21 9.14180 118.33576 32903 ft 468 kts 36°
2026-05-06 13:22 9.19467 118.37413 32904 ft 467 kts 36°
2026-05-06 13:22 9.24721 118.41226 32992 ft 468 kts 36°
2026-05-06 13:22 9.27366 118.43146 33179 ft 468 kts 36°
2026-05-06 13:23 9.30010 118.45065 33365 ft 467 kts 36°
2026-05-06 13:23 9.32650 118.46982 33546 ft 467 kts 36°
2026-05-06 13:23 9.35289 118.48898 33713 ft 467 kts 36°
2026-05-06 13:23 9.37925 118.50813 33874 ft 466 kts 36°
2026-05-06 13:24 9.40563 118.52729 34021 ft 466 kts 36°
2026-05-06 13:24 9.43197 118.54643 34147 ft 466 kts 36°
2026-05-06 13:24 9.45832 118.56557 34258 ft 466 kts 36°
2026-05-06 13:24 9.48466 118.58471 34379 ft 466 kts 36°
2026-05-06 13:25 9.51100 118.60386 34488 ft 466 kts 36°
2026-05-06 13:25 9.53734 118.62301 34605 ft 466 kts 36°
2026-05-06 13:25 9.56373 118.64220 34708 ft 467 kts 36°
2026-05-06 13:25 9.59014 118.66141 34818 ft 467 kts 36°
2026-05-06 13:26 9.61648 118.68057 34898 ft 467 kts 36°
2026-05-06 13:26 9.66924 118.71897 34916 ft 466 kts 36°
2026-05-06 13:27 9.72192 118.75724 34916 ft 466 kts 34°
2026-05-06 13:27 9.77897 118.78836 34917 ft 467 kts 24°
2026-05-06 13:28 9.83822 118.81539 34914 ft 467 kts 24°
2026-05-06 13:28 9.89732 118.84253 34913 ft 467 kts 24°
2026-05-06 13:29 9.95652 118.86970 34911 ft 467 kts 24°
2026-05-06 13:29 10.01564 118.89682 34910 ft 466 kts 24°
2026-05-06 13:30 10.07482 118.92399 34908 ft 467 kts 24°
2026-05-06 13:30 10.13391 118.95112 34909 ft 467 kts 24°
2026-05-06 13:31 10.19310 118.97831 34911 ft 467 kts 24°
2026-05-06 13:31 10.25242 119.00557 35074 ft 468 kts 24°
2026-05-06 13:31 10.28160 119.01898 35183 ft 468 kts 24°
2026-05-06 13:32 10.31129 119.03263 35289 ft 468 kts 24°
2026-05-06 13:32 10.34091 119.04626 35401 ft 468 kts 24°
2026-05-06 13:32 10.37059 119.05991 35496 ft 468 kts 24°
2026-05-06 13:32 10.40023 119.07356 35606 ft 468 kts 24°
2026-05-06 13:33 10.42986 119.08719 35727 ft 468 kts 24°
2026-05-06 13:33 10.45949 119.10082 35845 ft 467 kts 24°
2026-05-06 13:33 10.48909 119.11444 35900 ft 467 kts 24°
2026-05-06 13:34 10.54818 119.14165 35902 ft 466 kts 24°
2026-05-06 13:34 10.60726 119.16887 35905 ft 466 kts 24°
2026-05-06 13:35 10.66628 119.19606 35905 ft 466 kts 24°
2026-05-06 13:35 10.72524 119.22325 35908 ft 465 kts 24°
2026-05-06 13:36 10.78423 119.25046 35904 ft 465 kts 24°
2026-05-06 13:36 10.84320 119.27767 35906 ft 465 kts 24°
2026-05-06 13:37 10.90214 119.30488 35906 ft 465 kts 24°
2026-05-06 13:37 10.96112 119.33212 35908 ft 466 kts 24°
2026-05-06 13:38 11.02014 119.35939 35913 ft 466 kts 24°
2026-05-06 13:38 11.06916 119.38205 35909 ft 466 kts 24°
2026-05-06 13:39 11.13813 119.41395 35908 ft 466 kts 24°
2026-05-06 13:39 11.19710 119.44123 35909 ft 466 kts 24°
2026-05-06 13:40 11.25612 119.46855 35906 ft 466 kts 24°
2026-05-06 13:40 11.31516 119.49589 35905 ft 466 kts 24°
2026-05-06 13:41 11.36419 119.51861 35907 ft 466 kts 24°
2026-05-06 13:41 11.42325 119.54598 35907 ft 466 kts 24°
2026-05-06 13:42 11.48232 119.57337 35903 ft 466 kts 24°
2026-05-06 13:42 11.54139 119.60077 35907 ft 466 kts 23°
2026-05-06 13:43 11.60045 119.62819 35903 ft 467 kts 23°
2026-05-06 13:43 11.65954 119.65562 35905 ft 467 kts 23°
2026-05-06 13:44 11.72031 119.67837 35905 ft 465 kts 12°
2026-05-06 13:44 11.78380 119.69118 35902 ft 465 kts
2026-05-06 13:45 11.84730 119.70388 35903 ft 465 kts
2026-05-06 13:45 11.94254 119.72291 35906 ft 465 kts
2026-05-06 13:46 12.00609 119.73559 35905 ft 465 kts
2026-05-06 13:46 12.06963 119.74827 35906 ft 465 kts
2026-05-06 13:47 12.13313 119.76095 35903 ft 465 kts
2026-05-06 13:47 12.19628 119.77357 35903 ft 465 kts
2026-05-06 13:48 12.25989 119.78628 35904 ft 466 kts
2026-05-06 13:48 12.32350 119.79900 35902 ft 466 kts
2026-05-06 13:49 12.38707 119.81172 35904 ft 466 kts
2026-05-06 13:49 12.45070 119.82446 35903 ft 466 kts
2026-05-06 13:50 12.51431 119.83720 35904 ft 466 kts
2026-05-06 13:50 12.57791 119.84994 35907 ft 466 kts
2026-05-06 13:51 12.64158 119.86270 35903 ft 466 kts
2026-05-06 13:51 12.70521 119.87547 35908 ft 466 kts
2026-05-06 13:52 12.76880 119.88823 35905 ft 466 kts
2026-05-06 13:52 12.83238 119.90099 35906 ft 466 kts
2026-05-06 13:53 12.89605 119.91378 35904 ft 466 kts
2026-05-06 13:53 12.95966 119.92657 35905 ft 466 kts
2026-05-06 13:54 12.99150 119.93297 35769 ft 467 kts
2026-05-06 13:54 13.02333 119.93937 35535 ft 466 kts
2026-05-06 13:54 13.05508 119.94576 35302 ft 465 kts
2026-05-06 13:54 13.08682 119.95215 35070 ft 465 kts
2026-05-06 13:55 13.11846 119.95851 34734 ft 462 kts
2026-05-06 13:55 13.15002 119.96487 34211 ft 462 kts
2026-05-06 13:55 13.18111 119.97113 33570 ft 462 kts
2026-05-06 13:55 13.21270 119.97748 32798 ft 464 kts 10°
2026-05-06 13:56 13.24450 119.98388 32010 ft 466 kts 10°
2026-05-06 13:56 13.27638 119.99029 31227 ft 469 kts 10°
2026-05-06 13:56 13.30847 119.99675 30448 ft 471 kts 10°
2026-05-06 13:56 13.34070 120.00325 29787 ft 471 kts 11°
2026-05-06 13:57 13.37267 120.00969 29221 ft 466 kts 11°
2026-05-06 13:57 13.40430 120.01607 28687 ft 461 kts 11°
2026-05-06 13:57 13.43564 120.02240 28119 ft 457 kts 11°
2026-05-06 13:57 13.46668 120.02867 27561 ft 453 kts 11°
2026-05-06 13:58 13.49750 120.03489 27026 ft 449 kts 11°
2026-05-06 13:58 13.52796 120.04104 26528 ft 444 kts 11°
2026-05-06 13:58 13.55820 120.04714 26019 ft 440 kts 11°
2026-05-06 13:58 13.58814 120.05319 25521 ft 437 kts 11°
2026-05-06 13:59 13.61777 120.05918 25049 ft 432 kts 11°
2026-05-06 13:59 13.64720 120.06513 24562 ft 429 kts 11°
2026-05-06 13:59 13.67632 120.07101 24090 ft 425 kts 11°
2026-05-06 13:59 13.70519 120.07685 23641 ft 421 kts 11°
2026-05-06 14:00 13.73381 120.08264 23123 ft 417 kts 12°
2026-05-06 14:00 13.76192 120.08832 22934 ft 405 kts 12°
2026-05-06 14:00 13.78907 120.09382 22801 ft 391 kts 12°
2026-05-06 14:00 13.81528 120.09913 22648 ft 376 kts 12°
2026-05-06 14:01 13.84036 120.10426 22453 ft 360 kts 13°
2026-05-06 14:01 13.86414 120.11148 21946 ft 355 kts 22°
2026-05-06 14:01 13.88670 120.12154 21373 ft 351 kts 25°
2026-05-06 14:01 13.90894 120.13168 20822 ft 349 kts 24°
2026-05-06 14:02 13.93107 120.14168 20289 ft 346 kts 24°
2026-05-06 14:02 13.95303 120.15157 19774 ft 343 kts 24°
2026-05-06 14:02 13.97476 120.16135 19278 ft 340 kts 24°
2026-05-06 14:02 13.99633 120.17106 18778 ft 337 kts 24°
2026-05-06 14:03 14.01740 120.18055 18297 ft 334 kts 24°
2026-05-06 14:03 14.03864 120.19014 17748 ft 332 kts 24°
2026-05-06 14:03 14.05970 120.19963 17221 ft 329 kts 25°
2026-05-06 14:03 14.08054 120.20903 16696 ft 326 kts 25°
2026-05-06 14:04 14.10122 120.21837 16190 ft 323 kts 25°
2026-05-06 14:04 14.12168 120.22760 15677 ft 320 kts 25°
2026-05-06 14:04 14.14201 120.23678 15185 ft 317 kts 25°
2026-05-06 14:04 14.16216 120.24588 14714 ft 315 kts 25°
2026-05-06 14:05 14.18218 120.25492 14368 ft 313 kts 25°
2026-05-06 14:05 14.20202 120.26388 14016 ft 311 kts 25°
2026-05-06 14:05 14.22177 120.27281 13658 ft 309 kts 25°
2026-05-06 14:05 14.24140 120.28168 13248 ft 307 kts 25°
2026-05-06 14:06 14.26088 120.29048 12862 ft 305 kts 25°
2026-05-06 14:06 14.28030 120.29926 12470 ft 303 kts 25°
2026-05-06 14:06 14.29956 120.30797 12089 ft 302 kts 25°
2026-05-06 14:06 14.31874 120.31664 11700 ft 300 kts 25°
2026-05-06 14:07 14.33769 120.32521 11426 ft 296 kts 25°
2026-05-06 14:07 14.35664 120.33373 11188 ft 298 kts 25°
2026-05-06 14:07 14.37563 120.34220 11040 ft 296 kts 25°
2026-05-06 14:07 14.39451 120.35067 11018 ft 296 kts 25°
2026-05-06 14:08 14.41344 120.35924 11016 ft 297 kts 25°
2026-05-06 14:08 14.43185 120.36871 11017 ft 295 kts 36°
2026-05-06 14:08 14.44689 120.38286 11018 ft 293 kts 53°
2026-05-06 14:08 14.45772 120.40058 11021 ft 293 kts 60°
2026-05-06 14:09 14.46786 120.41879 11021 ft 292 kts 62°
2026-05-06 14:09 14.47785 120.43702 11019 ft 292 kts 62°
2026-05-06 14:09 14.48787 120.45530 11017 ft 292 kts 61°
2026-05-06 14:09 14.49790 120.47348 11016 ft 291 kts 61°
2026-05-06 14:10 14.50794 120.49156 10877 ft 290 kts 61°
2026-05-06 14:10 14.51806 120.50971 10515 ft 293 kts 61°
2026-05-06 14:10 14.52822 120.52789 10175 ft 292 kts 61°
2026-05-06 14:10 14.53832 120.54595 9843 ft 290 kts 61°
2026-05-06 14:11 14.54839 120.56394 9450 ft 288 kts 61°
2026-05-06 14:11 14.55836 120.58177 9124 ft 284 kts 61°
2026-05-06 14:11 14.56808 120.59913 9026 ft 277 kts 61°
2026-05-06 14:11 14.57780 120.61655 9017 ft 282 kts 61°
2026-05-06 14:12 14.58759 120.63408 8946 ft 281 kts 61°
2026-05-06 14:12 14.59730 120.65162 8612 ft 283 kts 64°
2026-05-06 14:12 14.60209 120.67094 8369 ft 275 kts 91°
2026-05-06 14:12 14.59783 120.68959 8245 ft 264 kts 117°
2026-05-06 14:13 14.58610 120.70378 7824 ft 263 kts 144°
2026-05-06 14:13 14.57024 120.71316 7343 ft 263 kts 149°
2026-05-06 14:13 14.55439 120.72208 7103 ft 253 kts 149°
2026-05-06 14:13 14.53937 120.73052 6783 ft 248 kts 153°
2026-05-06 14:14 14.52259 120.73402 6355 ft 250 kts 184°
2026-05-06 14:14 14.50618 120.72831 5982 ft 253 kts 213°
2026-05-06 14:14 14.49436 120.71533 5789 ft 247 kts 239°
2026-05-06 14:14 14.48694 120.69921 5381 ft 255 kts 250°
2026-05-06 14:15 14.48020 120.68208 5033 ft 253 kts 242°
2026-05-06 14:15 14.47221 120.66706 5312 ft 232 kts 239°
2026-05-06 14:15 14.46376 120.65239 5673 ft 240 kts 238°
2026-05-06 14:15 14.45523 120.63763 6002 ft 242 kts 239°
2026-05-06 14:16 14.44666 120.62263 6009 ft 241 kts 239°
2026-05-06 14:16 14.43828 120.60777 6013 ft 240 kts 239°
2026-05-06 14:16 14.42992 120.59282 6011 ft 241 kts 239°
2026-05-06 14:16 14.42158 120.57787 6012 ft 241 kts 239°
2026-05-06 14:17 14.41322 120.56287 6011 ft 242 kts 239°
2026-05-06 14:17 14.40485 120.54786 6013 ft 241 kts 239°
2026-05-06 14:17 14.39646 120.53283 6008 ft 241 kts 239°
2026-05-06 14:17 14.38814 120.51791 5871 ft 240 kts 239°
2026-05-06 14:18 14.37983 120.50302 5577 ft 239 kts 239°
2026-05-06 14:18 14.37158 120.48822 5325 ft 234 kts 239°
2026-05-06 14:18 14.36370 120.47409 5113 ft 224 kts 239°
2026-05-06 14:18 14.35566 120.46014 5030 ft 232 kts 232°
2026-05-06 14:19 14.34330 120.45016 5010 ft 224 kts 197°
2026-05-06 14:19 14.32821 120.44882 5008 ft 215 kts 163°
2026-05-06 14:19 14.31618 120.45588 5004 ft 192 kts 127°
2026-05-06 14:19 14.30917 120.46727 5008 ft 188 kts 117°
2026-05-06 14:20 14.30273 120.47905 5009 ft 188 kts 117°
2026-05-06 14:20 14.29660 120.49096 5007 ft 188 kts 107°
2026-05-06 14:20 14.29543 120.50415 5015 ft 185 kts 88°
2026-05-06 14:20 14.29588 120.51729 5005 ft 182 kts 87°
2026-05-06 14:21 14.29638 120.53032 5005 ft 180 kts 87°
2026-05-06 14:21 14.29683 120.54256 5007 ft 165 kts 87°
2026-05-06 14:21 14.29727 120.55439 5009 ft 166 kts 87°
2026-05-06 14:21 14.29770 120.56617 5008 ft 166 kts 87°
2026-05-06 14:22 14.29812 120.57801 5009 ft 165 kts 87°
2026-05-06 14:22 14.29854 120.58990 5011 ft 166 kts 87°
2026-05-06 14:22 14.29896 120.60183 5010 ft 166 kts 87°
2026-05-06 14:22 14.29934 120.61341 5002 ft 155 kts 87°
2026-05-06 14:23 14.29971 120.62463 5010 ft 155 kts 87°
2026-05-06 14:23 14.30008 120.63567 5006 ft 156 kts 87°
2026-05-06 14:23 14.30172 120.64683 5009 ft 156 kts 73°
2026-05-06 14:23 14.30568 120.65698 5013 ft 155 kts 64°
2026-05-06 14:24 14.31086 120.66684 5012 ft 157 kts 61°
2026-05-06 14:24 14.31631 120.67653 5011 ft 156 kts 61°
2026-05-06 14:24 14.32177 120.68621 5012 ft 156 kts 60°
2026-05-06 14:24 14.32717 120.69582 5012 ft 156 kts 61°
2026-05-06 14:25 14.33262 120.70554 5013 ft 156 kts 61°
2026-05-06 14:25 14.33802 120.71515 5083 ft 156 kts 61°
2026-05-06 14:25 14.34345 120.72485 5153 ft 157 kts 61°
2026-05-06 14:25 14.34890 120.73457 5210 ft 156 kts 61°
2026-05-06 14:26 14.35433 120.74425 5284 ft 157 kts 61°
2026-05-06 14:26 14.35981 120.75404 5238 ft 157 kts 61°
2026-05-06 14:26 14.36522 120.76368 5178 ft 151 kts 61°
2026-05-06 14:26 14.37037 120.77286 5067 ft 147 kts 61°
2026-05-06 14:27 14.37551 120.78204 4939 ft 147 kts 61°
2026-05-06 14:27 14.38062 120.79115 4786 ft 147 kts 61°
2026-05-06 14:27 14.38576 120.80032 4628 ft 148 kts 62°
2026-05-06 14:27 14.39090 120.80949 4446 ft 147 kts 62°
2026-05-06 14:28 14.39599 120.81859 4261 ft 147 kts 61°
2026-05-06 14:28 14.40109 120.82767 4077 ft 146 kts 62°
2026-05-06 14:28 14.40446 120.83370 3948 ft 147 kts 62°
2026-05-06 14:28 14.41124 120.84578 3696 ft 144 kts 61°
2026-05-06 14:29 14.41455 120.85170 3584 ft 146 kts 62°
2026-05-06 14:29 14.41965 120.86080 3395 ft 146 kts 62°
2026-05-06 14:29 14.42465 120.86971 3215 ft 142 kts 62°
2026-05-06 14:29 14.42962 120.87860 3029 ft 144 kts 62°
2026-05-06 14:30 14.43458 120.88742 2845 ft 140 kts 62°
2026-05-06 14:30 14.43946 120.89615 2672 ft 140 kts 62°
2026-05-06 14:30 14.44589 120.90762 2430 ft 139 kts 62°
2026-05-06 14:30 14.45070 120.91621 2254 ft 138 kts 61°
2026-05-06 14:31 14.45394 120.92199 2139 ft 138 kts 61°
2026-05-06 14:31 14.45875 120.93059 1952 ft 139 kts 62°
2026-05-06 14:31 14.46359 120.93923 1776 ft 139 kts 62°
2026-05-06 14:31 14.46840 120.94781 1598 ft 137 kts 62°
2026-05-06 14:32 14.47318 120.95635 1421 ft 138 kts 62°
2026-05-06 14:32 14.47805 120.96502 1136 ft 143 kts 60°
2026-05-06 14:32 14.48323 120.97396 722 ft 144 kts 61°
2026-05-06 14:32 14.48777 120.98239 630 ft 131 kts 63°
2026-05-06 14:33 14.49261 120.99104 461 ft 148 kts 62°
2026-05-06 14:33 14.49776 120.99974 206 ft 137 kts 61°
2026-05-06 14:33 14.50208 121.00794 63 ft 106 kts 60°
2026-05-06 14:33 14.50445 121.01178 54 ft 23 kts 50°
2026-05-06 14:34 14.50549 121.01369 56 ft 38 kts 68°
2026-05-06 14:34 14.50668 121.01637 50 ft 39 kts 61°
2026-05-06 14:34 14.50849 121.01782 40 ft 29 kts 38°
2026-05-06 14:34 14.50910 121.01785 31 ft 0 kts 296°
2026-05-06 14:35 14.50914 121.01772 31 ft 1 kts 285°
2026-05-06 14:35 14.50928 121.01748 30 ft 1 kts 310°
2026-05-06 14:35 14.50958 121.01715 29 ft 12 kts 316°
2026-05-06 14:36 14.51034 121.01644 29 ft 17 kts 319°
2026-05-06 14:36 14.51076 121.01606 29 ft 0 kts 315°
2026-05-06 14:36 14.51082 121.01599 29 ft 3 kts 313°
2026-05-06 14:36 14.51103 121.01575 29 ft 6 kts 311°
2026-05-06 14:37 14.51134 121.01537 29 ft 8 kts 311°
2026-05-06 14:37 14.51178 121.01487 30 ft 11 kts 313°
2026-05-06 14:37 14.51221 121.01439 31 ft 0 kts 313°